Weather History for KCXY - November, 2013

Change the Weather History Date:

Monday, November 4, 2013

  Actual Average Record
Temperature  
Mean Temperature 35 °F -  
Max Temperature 43 °F 55 °F 78 °F (1994)
Min Temperature 27 °F 37 °F 24 °F (1951)
Degree Days  
Heating Degree Days 30    
Moisture  
Dew Point 21 °F    
Average Humidity 56    
Maximum Humidity 81    
Minimum Humidity 35    
Precipitation  
Precipitation 0.00 in - - ()
Sea Level Pressure  
Sea Level Pressure 30.61 in    
Wind  
Wind Speed 2 mph (East)    
Max Wind Speed 8 mph    
Max Gust Speed -    
Visibility 10 miles    
Events      
Averages and records for this station are not official NWS values.
T = Trace of Precipitation, MM = Missing Value Source: NWS Daily Summary

Daily Weather History Graph

Daily Weather History Graph

Search for Another Location

Airport or City:

Trip Planner

Search our weather history database for the weather conditions in past years. The results will help you decide how hot, cold, wet, or windy it might be!

Date:

Astronomy

Nov. 04, 2013 Rise Set
Actual Time 6:40 AM EST 5:00 PM EST
Civil Twilight 6:12 AM EST 5:29 PM EST
Nautical Twilight 5:39 AM EST 6:01 PM EST
Astronomical Twilight 5:08 AM EST 6:33 PM EST
Moon 7:48 AM EST (11/4) 6:03 PM EST (11/4)
Length of Visible Light 11h 17m
Length of Day
10h 20m
New Moon, 2% of the Moon is Illuminated
Nov 4
New Moon
Nov 10
First Quarter
Nov 17
Full
Nov 25
Last Quarter
Dec 2
New

Hourly Weather History & Observations

Time (EST) Temp. Windchill Dew Point Humidity Pressure Visibility Wind Dir Wind Speed Gust Speed Precip Events Conditions
12:56 AM 30.0 °F - 21.9 °F 72% 30.53 in 10.0 mi Calm Calm - N/A   Clear
1:56 AM 35.1 °F 32.2 °F 19.0 °F 52% 30.54 in 10.0 mi NNW 3.5 mph - N/A   Clear
2:56 AM 34.0 °F 31.0 °F 19.9 °F 56% 30.56 in 10.0 mi NNW 3.5 mph - N/A   Clear
3:56 AM 30.0 °F - 19.9 °F 66% 30.57 in 10.0 mi Calm Calm - N/A   Clear
4:56 AM 28.0 °F - 21.9 °F 78% 30.58 in 10.0 mi Calm Calm - N/A   Clear
5:56 AM 27.0 °F 23.0 °F 21.9 °F 81% 30.60 in 10.0 mi SW 3.5 mph - N/A   Clear
6:56 AM 27.0 °F - 21.9 °F 81% 30.63 in 10.0 mi Calm Calm - N/A   Clear
7:56 AM 33.1 °F - 23.0 °F 66% 30.66 in 10.0 mi Calm Calm - N/A   Clear
8:56 AM 36.0 °F 31.1 °F 18.0 °F 48% 30.66 in 10.0 mi ENE 5.8 mph - N/A   Clear
9:56 AM 37.9 °F 33.5 °F 19.0 °F 47% 30.66 in 10.0 mi ENE 5.8 mph - N/A   Clear
10:56 AM 41.0 °F 35.8 °F 18.0 °F 40% 30.65 in 10.0 mi East 8.1 mph - N/A   Clear
11:56 AM 42.1 °F 39.2 °F 18.0 °F 38% 30.64 in 10.0 mi SE 4.6 mph - N/A   Clear
12:56 PM 42.1 °F - 17.1 °F 37% 30.62 in 10.0 mi Calm Calm - N/A   Clear
1:56 PM 43.0 °F 41.3 °F 18.0 °F 37% 30.60 in 10.0 mi East 3.5 mph - N/A   Clear
2:56 PM 43.0 °F - 17.1 °F 35% 30.61 in 10.0 mi Calm Calm - N/A   Clear
3:56 PM 43.0 °F 39.5 °F 18.0 °F 37% 30.61 in 10.0 mi ESE 5.8 mph - N/A   Clear
4:56 PM 42.1 °F 37.7 °F 18.0 °F 38% 30.60 in 10.0 mi SE 6.9 mph - N/A   Clear
5:56 PM 39.9 °F 37.8 °F 19.9 °F 45% 30.61 in 10.0 mi ESE 3.5 mph - N/A   Clear
6:56 PM 37.0 °F - 24.1 °F 59% 30.62 in 10.0 mi Calm Calm - N/A   Clear
7:56 PM 37.9 °F - 24.1 °F 57% 30.62 in 10.0 mi Calm Calm - N/A   Clear
8:56 PM 35.1 °F - 26.1 °F 70% 30.65 in 10.0 mi Calm Calm - N/A   Clear
9:56 PM 34.0 °F - 26.1 °F 73% 30.65 in 10.0 mi Calm Calm - N/A   Clear
10:56 PM 35.1 °F - 26.1 °F 70% 30.64 in 10.0 mi Calm Calm - N/A   Clear
11:56 PM 36.0 °F - 27.0 °F 70% 30.63 in 10.0 mi Calm Calm - N/A   Clear